Weather Service Report


668 
ASUS41 KPHI 271410
RWRPHI

REGIONAL WEATHER ROUNDUP
NATIONAL WEATHER SERVICE MOUNT HOLLY NJ
900 AM EST TUE JAN 27 2015

NOTE:  "FAIR" INDICATES FEW OR NO CLOUDS BELOW 12,000 FEET WITH NO
SIGNIFICANT WEATHER AND/OR OBSTRUCTIONS TO VISIBILITY.

 * = STATION DOES NOT REPORT PRECIPITATION (E.G. RAIN, SNOW, ETC.) 
        OR FOG.

NJZ015>026-271500-
SOUTHERN NEW JERSEY
  
CITY           SKY/WX    TMP DP  RH WIND       PRES   REMARKS
POMONA         LGT SNOW  25  21  85 NW18      29.69S FOG     WCI  11  
RIO GRANDE*    CLOUDY    28  21  74 NW15G22   29.72S WCI  17          
MILLVILLE      LGT SNOW  28  23  81 NW10      29.73R WCI  19          
WRIGHTSTOWN    LGT SNOW  25  22  88 NW13      29.70R FOG     WCI  13  
MOUNT HOLLY    LGT SNOW  25  22  88 NW10      29.74S VSB 3/4 WCI  15  
TRENTON        LGT SNOW  24  20  84 NW9       29.73R FOG     WCI  14  

$$
NJZ001>014-271500-
NORTHERN NEW JERSEY
  
CITY           SKY/WX    TMP DP  RH WIND       PRES   REMARKS
SUSSEX         LGT SNOW  21  10  62 VRB5      29.73R WCI  15          
ANDOVER*         N/A     21  10  62 MISG      29.73R                  
MORRISTOWN     LGT SNOW  25  18  74 N8G17     29.73R WCI  16          
NEWARK         LGT SNOW  22  18  85 N22       29.72R VSB 1   WCI   6  
TETERBORO      LGT SNOW  21  16  79 N15       29.71R FOG     WCI   8  
CALDWELL       LGT SNOW  23  17  78 CALM      29.72S                  
SOMERVILLE     LGT SNOW  25  17  72 N8        29.73R WCI  16          
ALLAIRE*       CLOUDY    23  14  68 NW20G25   29.68R WCI   8          
TOMS RIVER*    CLOUDY    25  18  74 N13G25    29.69S WCI  13          

$$
PAZ043-044-047-054-055-060>062-066>071-271500-
EASTERN PENNSYLVANIA
  
CITY           SKY/WX    TMP DP  RH WIND       PRES   REMARKS
PHILADELPHIA   LGT SNOW  27  22  81 N14       29.76R WCI  16          
NORTH PHILA    LGT SNOW  27  20  75 NW15      29.76R VSB 1   WCI  15  
BLUE BELL      CLOUDY    27  21  80 NW3       29.75R                  
DOYLESTOWN     LGT SNOW  23  19  85 N8        29.74R FOG     WCI  14  
POTTSTOWN      CLOUDY    25  17  72 N10       29.77R WCI  15          
LANCASTER      CLOUDY    24  18  77 N14       29.78R HAZE    WCI  12  
COATESVILLE    MOSUNNY   27  23  86 N9G18     29.74R WCI  17          
READING        MOSUNNY   25  16  68 N15G21    29.77S WCI  13          
ALLENTOWN      CLOUDY    23  13  65 NW12      29.76R WCI  12          
MOUNT POCONO   CLOUDY    15   5  64 N17G24    29.65R WCI  -1          
HAZLETON       CLOUDY    19  14  79 NW14G20   29.74R WCI   6          
WILKES BARRE   CLOUDY    19   6  57 N12       29.78R WCI   7          

$$
DEZALL-MDZ008-012-015-019-020-271500-
DELAWARE AND EASTERN MARYLAND
  
CITY           SKY/WX    TMP DP  RH WIND       PRES   REMARKS
WILMINGTON     CLOUDY    29  22  75 NW10      29.77R WCI  20          
DOVER          CLOUDY    28  25  86 NW13      29.75R WCI  18          
GEORGETOWN     CLOUDY    29  21  72 N9        29.75R WCI  20          
EASTON         CLOUDY    32  28  86 N12       29.81  FOG     WCI  23  
PATUXENT       CLOUDY    30  24  78 NW16      29.78R WCI  19          
OCEAN CITY     CLOUDY    29  22  75 N20G26    29.73R WCI  16          
WALLOPS ISLAND CLOUDY    29  23  78 N12       29.74R WCI  19          
CAMBRIDGE      PTSUNNY   32  23  69 N13       29.76S WCI  22          
SALISBURY      CLOUDY    32  22  66 N15       29.74R WCI  22          

$$
PAZ001-021-NYZ056-072-MDZ011-DCZ001-271500-
OTHER NEARBY LOCATIONS
  
CITY           SKY/WX    TMP DP  RH WIND       PRES   REMARKS
HARRISBURG     PTSUNNY   26  19  74 N17       29.80R WCI  13          
STATE COLLEGE  FLURRIES  21  16  79 N8        29.83R WCI  12          
WILLIAMSPORT   CLOUDY    21  12  68 W10       29.85R WCI  10          
BINGHAMTON     MOSUNNY   13   6  74 NW12      29.75S WCI  -1          
NEW YORK CITY  CLOUDY    23  15  71 MISG      29.71R HAZE             
BALTIMORE      CLOUDY    29  22  75 NW8       29.79R WCI  21          
WASHINGTON DC  CLOUDY    32  21  64 NW13G18   29.82S WCI  22          

$$

Return to Home page


Western Regional Climate Center, wrcc@dri.edu